Location: Piotrkow Trybunalski
(51.4000°N, 19.6830°E)
Time: 05:07:12
(UTC+02:00)

A-11 Canister half - Pass Details

Date: 29 January 2023
Orbit: 1526 x 1682 km, 47.3° (Epoch: 25 March)

Event Time Altitude Azimuth Distance (km) Brightness Sun altitude
Rises 13:54:03 0° 287° (WNW) 4,757 11.7 15.9°
Reaches altitude 10° 13:57:49 10° 275° (W) 3,794 11.5 15.6°
Maximum altitude 14:04:58 24° 226° (SW) 2,869 12.4 15.0°
Drops below altitude 10° 14:12:17 10° 178° (S) 3,875 12.1 14.4°
Sets 14:16:14 0° 165° (SSE) 4,880 12.3 14.1°
